BLOCK DM-SL R/B, 28365

Orbit data source: Space-Track

BLOCK DM-SL R/B, 28365 is space debris in HEO originally from a launch on Tue, 29 Jun 2004 UTC launched from the Sea Launch (SEAL). Debris objects in space refer to the collection of defunct objects orbiting the Earth. Examples of debris include non-operational satellites, rocket bodies, and fragments generated from explosions, collisions, or faulty payload assembly.

Loading next visibility...
Identifier
28365, 2004-024B
Orbit
HEO
Last TLE update
20 hours ago
Origin
Manufacturer
RKKE
Mission
Spacecraft
Bus & Motor
BLOK DM2, 11D58M
Mass
~3,210 kg wet, 3,210 kg dry
Launch date (UTC)
2004-06-29 (21 years ago)
Launch vehicle
Unknown
Launch site
Sea Launch (SEAL)
Object type
Payload
Rocket body
Debris
Shape & HBR
Cyl, 6.3 m
Radar Cross Section
23.684 m², Large (>1 m²)

Expand to show TLE details & history

TLE from 20 hours ago
0 BLOCK DM-SL R/B
1 28365U 04024B   25172.77955839 -.00000020  00000-0  12622-5 0  9995
2 28365   0.1397  44.7507 5967763 275.8203 196.5611  3.73386083286267
Epoch: 2025-06-21T18:42Z
TLE epoch observation values (Epoch: 2025-06-21T18:42:33.844Z)
Latitude
0.13728°
Longitude
-45.07236°
Altitude
21,464.822 km
Speed
2.434 km/s
True Right ascension
09h 43m 07s
True Declination
0° 08' 13"
Sunlit
Object was in daylight at epoch
Visualization orbit readout
Latitude
0.11853°
Longitude
-28.35075°
Altitude
19,045.577 km
Speed
2.941 km/s
Apparent Right ascension
11h 17m 50s
Apparent Declination
-7° 52' 36"
Sunlit
Object is in daylight
Visualization observer readout
Local Sidereal Time
01:53:39
Azimuth
57.997° ENE
Elevation
-42.747°
Doppler factor
1
Orbital elements
Apogee altitude
21,654.307 km
Perigee altitude
700.717 km
Semi-major axis
17,555.649 km
Eccentricity
0.59678
Inclination
0.1397°
RAAN
44.7507°
Arg. of periapsis
275.8203°
True anomaly
Unknown
Mean anomaly
196.5611°
Eccentric anomaly
Unknown
Mean motion
0.93308 °/min
Orbital period
385.82 mins
BSTAR
0.0000012622
Loading maneuver chart data...
Loading SW <> Apogee altitude chart data...
Loading historical data...
Loading historical data...
Loading historical data...
Loading historical data...
Loading historical data...
Loading historical data...
Loading historical data...
Other satellites on launch #24 in the year 2004 (2004-06-29 UTC)

BLOCK DM-SL R/B Visibility forecast

Observer location: undefined°, undefined°

Span
Click to sort rows by Start time (UTC) header in descending order
Start Az.
Max El. time (UTC)
Max El. Az.
Max El.
End time (UTC)
End Az.
292 mins2025-06-22 17:19:58.235Z208.664° SW2025-06-22 18:08:58.235Z151.458° SSE26.917°2025-06-22 22:11:58.235Z118.528° SE
77 mins2025-06-23 04:07:58.235Z245.964° WSW2025-06-23 05:10:58.235Z214.827° SW15.272°2025-06-23 05:24:58.235Z182.951° SSW
|